230  
ASUS46 KPQR 211710  
RWROR  
 
OREGON REGIONAL WEATHER ROUNDUP  
NATIONAL WEATHER SERVICE PORTLAND OR  
1000 AM PDT THU OCT 21 2021  
 
NOTE: "FAIR" INDICATES FEW OR NO CLOUDS BELOW 12,000 FEET WITH  
NO SIGNIFICANT WEATHER AND/OR S TO VISIBILITY
.  
 
ORZ001>013-211800-  
NORTHWEST OREGON  
 
 
CITY SKY/WX TMP DP RH WIND PRES REMARKS
 
ASTORIA CLOUDY 61 43 51 SE14G28 29.71F  
TILLAMOOK PTSUNNY 66 43 42 SE17G25 29.74R  
NEWPORT CLOUDY 66 46 48 SE12G17 29.75R  
FLORENCE CLOUDY 66 46 48 E7 29.73R  
PORTLAND CLOUDY 60 43 53 SE16 29.81F  
VANCOUVER WA CLOUDY 58 46 64 E13 29.81F  
SCAPPOOSE CLOUDY 55 50 83 W3 29.81F  
HILLSBORO CLOUDY 51 49 92 CALM 29.80F  
AURORA CLOUDY 52 47 83 S3 29.81F  
MCMINNVILLE PTSUNNY 54 48 80 N3 29.80S  
SALEM CLOUDY 54 50 86 CALM 29.78F  
CORVALLIS PTSUNNY 51 49 92 CALM 29.81F  
EUGENE PTSUNNY 54 48 80 N3 29.80F  
CRESWELL SUNNY 50 50 100 CALM 29.80F  

 
 
ORZ021-028-211800-  
SOUTHWEST OREGON  
 
 
CITY SKY/WX TMP DP RH WIND PRES REMARKS
 
NORTH BEND CLOUDY 65 52 62 SE6 29.74F  
BROOKINGS CLOUDY 64 52 64 SE12 29.82F  
ROSEBURG MOSUNNY 53 49 86 CALM 29.80S  
SEXTON SUMMIT MOSUNNY 53 43 68 SE12G24 29.88S  
GRANTS PASS CLOUDY 48 46 93 CALM 29.91R  
MEDFORD MOSUNNY 51 47 86 NE5 29.88R  

 
 
ORZ014>016-041-211800-  
COLUMBIA GORGE  
 
 
CITY SKY/WX TMP DP RH WIND PRES REMARKS
 
TROUTDALE CLOUDY 59 43 55 E22G29 29.83F  
HOOD RIVER MOSUNNY 46 43 87 CALM 29.98F  
THE DALLES PTSUNNY 51 43 74 CALM 29.99F  

 
 
ORZ029>031-041-044-049-050-061>064-502-503-505>511-211800-  
EASTERN OREGON  
 
 
CITY SKY/WX TMP DP RH WIND PRES REMARKS
 
MADRAS PTSUNNY 46 39 76 NW7 29.98S  
REDMOND PTSUNNY 58 41 53 SE7 29.95S  
BEND PTSUNNY 52 41 66 CALM 29.96F  
PRINEVILLE PTSUNNY 57 41 54 SE15 29.95F  
KLAMATH FALLS PTSUNNY 54 43 66 SE20G30 30.03S  
LAKEVIEW CLOUDY 55 44 66 S18G31 30.13S  
HERMISTON PTSUNNY 54 42 64 SE3 29.99F  
PENDLETON PTSUNNY 58 42 55 E7 29.99F  
JOHN DAY MOSUNNY 62 42 48 S10G30 30.05F  
MEACHAM PTSUNNY 53 38 56 CALM 30.05F  
LA GRANDE PTSUNNY 60 41 49 S13 30.09S  
BAKER CITY MOSUNNY 59 40 49 SE17G28 30.12S  
BURNS CLOUDY 50 42 74 CALM 30.13F  
ROME N/A 54 32 43 N6 30.15R  
ONTARIO CLOUDY 56 40 55 CALM 30.18R  

 
 
OTHER REGIONAL REPORTS  
 
CITY SKY/WX TMP DP RH WIND PRES REMARKS
 
SEATTLE PTSUNNY 62 40 44 E14 29.83F  
SPOKANE PTSUNNY 49 42 77 NE8 30.11R  
VANCOUVER BC NOT AVBL  
PRINCE GEORGE NOT AVBL  
DAWSON CREEK NOT AVBL  
WHITEHORSE NOT AVBL  
BOISE MOSUNNY 65 37 35 SE14 30.15S  
REDDING CLOUDY 59 57 93 S9 30.07F  
SAN FRANCISCO LGT RAIN 62 61 96 E6 30.11R FOG  
 

 
 
 
 
CLICK HERE TO GO TO PREVIOUS BULLETINS.

The Nexlab OR Page Main Text Page